Regional Weather Roundup
Issued by NWS

Home | Current Version | Previous Version | Graphics & Text | Print | Product List | Glossary On
Versions: 1 2 3 4 5 6 7 8 9 10 11 12 13 14 15 16 17 18 19 20 21 22 23 24 25 26 27 28 29 30 31 32 33 34 35 36 37 38 39 40 41 42 43 44 45 46 47 48 49 50
000
ASUS43 KBIS 171502
RWRND

NORTH DAKOTA REGIONAL WEATHER ROUNDUP
NATIONAL WEATHER SERVICE BISMARCK ND
1000 AM CDT TUE OCT 17 2017

NOTE: "FAIR" INDICATES FEW OR NO CLOUDS BELOW 12,000 FEET WITH NO
SIGNIFICANT WEATHER AND/OR OBSTRUCTIONS TO VISIBILITY.


NDZ001>003-009>011-017-171600-
NORTHWEST NORTH DAKOTA

CITY           SKY/WX    TMP DP  RH WIND       PRES   REMARKS
WILLISTON      CLOUDY    49  33  54 SW7       29.83S
MINOT          MOSUNNY   54  33  45 SW13      29.80R
MINOT AFB      MOSUNNY   56  32  39 W14       29.77
$$

NDZ018>021-031>035-040>046-171600-
SOUTHWEST NORTH DAKOTA

CITY           SKY/WX    TMP DP  RH WIND       PRES   REMARKS
BISMARCK       SUNNY     46  35  65 CALM      29.91S
GARRISON         N/A     52  36  54 SW14      29.84S
HETTINGER ARPT SUNNY     53  29  39 W7        29.98S
$$

NDZ004>008-012>016-024-026-027-054-171600-
NORTHEAST NORTH DAKOTA

CITY           SKY/WX    TMP DP  RH WIND       PRES   REMARKS
GRAND FORKS    PTSUNNY   52  40  63 S13       29.86F
GRND FRKS AFB  CLOUDY    54  37  53 S10       29.86
DEVILS LAKE    CLOUDY    51  37  58 SW14      29.83S
$$

NDZ022-023-025-028>030-036>039-047>053-171600-
SOUTHEAST NORTH DAKOTA

CITY           SKY/WX    TMP DP  RH WIND       PRES   REMARKS
FARGO          SUNNY     48  38  68 S8        29.93F
JAMESTOWN      SUNNY     49  36  61 S9        29.89F
$$




USA.gov is the U.S. government's official web portal to all federal, state and local government web resources and services.